Location: Napier
(39.4830°S, 176.9170°E)
Time: 18:43:41
(UTC+13:00)

Cosmos 1869 Rocket - Pass Details

Date: 24 January 2019
Orbit: 606 x 632 km, 82.5° (Epoch: 20 February)

Event Time Altitude Azimuth Distance (km) Brightness Sun altitude
Rises 22:28:49 0° 184° (S) 2,919 7.8 -18.4°
Reaches altitude 10° 22:31:06 10° 180° (S) 2,001 6.8 -18.7°
Maximum altitude 22:35:29 60° 99° (E) 707 3.6 -19.3°
Enters shadow 22:36:30 46° 47° (NE) 825 3.7 -19.4°
